When you browse on this site, cookies collect data to enhance your experience and personalize the content and advertising you see.
Visit our Privacy Policy to learn more. By continuing to use the site, you agree to this use of cookies and data.
  • In Österreich
  • Länderverzeichnis
  • Für 7 Tage
  • Wassertemperatur
  • Wetterkarte
  • News
  • Widgets
  • user-avatar
    Anmelden

    Stündliche Wetter Pasardshik

    Heute, 28 Februar, Freitag

    Zeit Temperatur Niederschläge Wind Luftdruck Luftfeuchtigkeit
    00:00 +4°C° 0 mm 2 m/S 738 mmHg 69%
    01:00 +3°C° 0 mm 2 m/S 738 mmHg 68%
    02:00 +4°C° 0 mm 1 m/S 739 mmHg 67%
    03:00 +4°C° 0 mm 1 m/S 739 mmHg 66%
    04:00 +4°C° 0 mm 1 m/S 739 mmHg 64%
    05:00 +3°C° 0 mm 1 m/S 739 mmHg 62%
    06:00 +4°C° 0 mm 1 m/S 739 mmHg 58%
    07:00 +5°C° 0 mm 1 m/S 739 mmHg 54%
    08:00 +5°C° 0 mm 0 m/S 739 mmHg 49%
    09:00 +7°C° 0 mm 1 m/S 739 mmHg 47%
    10:00 +8°C° 0 mm 1 m/S 739 mmHg 44%
    11:00 +8°C° 0 mm 2 m/S 738 mmHg 42%
    12:00 +9°C° 0 mm 2 m/S 738 mmHg 42%
    13:00 +10°C° 0 mm 2 m/S 737 mmHg 41%
    14:00 +12°C° 0 mm 2 m/S 736 mmHg 41%
    15:00 +10°C° 0.1 mm 2 m/S 736 mmHg 45%
    16:00 +10°C° 0.1 mm 3 m/S 736 mmHg 49%
    17:00 +9°C° 0.1 mm 3 m/S 736 mmHg 53%
    18:00 +8°C° 1.3 mm 3 m/S 737 mmHg 65%
    19:00 +5°C° 1.3 mm 3 m/S 738 mmHg 78%
    20:00 +4°C° 1.3 mm 4 m/S 738 mmHg 90%
    21:00 +3°C° 0.6 mm 4 m/S 739 mmHg 86%
    22:00 +3°C° 0.6 mm 3 m/S 739 mmHg 82%
    23:00 +3°C° 0.6 mm 3 m/S 739 mmHg 79%

    Morgen, 29 Februar, Samstag

    Zeit Temperatur Niederschläge Wind Luftdruck Luftfeuchtigkeit
    00:00 +3°C° 0 mm 3 m/S 739 mmHg 79%
    01:00 +2°C° 0 mm 3 m/S 740 mmHg 79%
    02:00 +1°C° 0 mm 4 m/S 740 mmHg 78%
    03:00 0°C° 0 mm 4 m/S 741 mmHg 79%
    04:00 0°C° 0 mm 4 m/S 741 mmHg 79%
    05:00 0°C° 0 mm 4 m/S 741 mmHg 79%
    06:00 0°C° 0 mm 4 m/S 742 mmHg 78%
    07:00 0°C° 0 mm 4 m/S 743 mmHg 76%
    08:00 +1°C° 0 mm 3 m/S 744 mmHg 74%
    09:00 +3°C° 0 mm 4 m/S 744 mmHg 69%
    10:00 +4°C° 0 mm 4 m/S 744 mmHg 65%
    11:00 +6°C° 0 mm 5 m/S 745 mmHg 60%
    12:00 +7°C° 0 mm 4 m/S 745 mmHg 58%
    13:00 +7°C° 0 mm 4 m/S 745 mmHg 55%
    14:00 +9°C° 0 mm 3 m/S 745 mmHg 53%
    15:00 +9°C° 0 mm 2 m/S 745 mmHg 53%
    16:00 +9°C° 0 mm 2 m/S 745 mmHg 54%
    17:00 +10°C° 0 mm 1 m/S 745 mmHg 55%
    18:00 +8°C° 0 mm 1 m/S 745 mmHg 60%
    19:00 +7°C° 0 mm 1 m/S 745 mmHg 64%
    20:00 +6°C° 0 mm 1 m/S 746 mmHg 69%
    21:00 +5°C° 0 mm 1 m/S 746 mmHg 71%
    22:00 +5°C° 0 mm 1 m/S 746 mmHg 73%
    23:00 +4°C° 0 mm 2 m/S 746 mmHg 74%

    übermorgen, 1 März, Sonntag

    Zeit Temperatur Niederschläge Wind Luftdruck Luftfeuchtigkeit
    00:00 +5°C° 0 mm 1 m/S 746 mmHg 76%
    01:00 +5°C° 0 mm 1 m/S 745 mmHg 77%
    02:00 +4°C° 0 mm 1 m/S 745 mmHg 79%
    03:00 +4°C° 0 mm 1 m/S 745 mmHg 79%
    04:00 +4°C° 0 mm 1 m/S 745 mmHg 79%
    05:00 +4°C° 0 mm 1 m/S 745 mmHg 79%
    06:00 +4°C° 0 mm 1 m/S 745 mmHg 78%
    07:00 +5°C° 0 mm 1 m/S 745 mmHg 78%
    08:00 +5°C° 0 mm 1 m/S 745 mmHg 78%
    09:00 +7°C° 0 mm 1 m/S 745 mmHg 73%
    10:00 +8°C° 0 mm 1 m/S 745 mmHg 67%
    11:00 +10°C° 0 mm 1 m/S 744 mmHg 62%
    12:00 +10°C° 0 mm 2 m/S 744 mmHg 61%
    13:00 +12°C° 0 mm 2 m/S 743 mmHg 59%
    14:00 +12°C° 0 mm 2 m/S 743 mmHg 58%
    15:00 +12°C° 0 mm 2 m/S 742 mmHg 60%
    16:00 +12°C° 0 mm 2 m/S 742 mmHg 62%
    17:00 +11°C° 0 mm 1 m/S 742 mmHg 64%
    18:00 +10°C° 0 mm 1 m/S 742 mmHg 67%
    19:00 +9°C° 0 mm 1 m/S 742 mmHg 69%
    20:00 +8°C° 0 mm 1 m/S 743 mmHg 71%
    21:00 +8°C° 0 mm 1 m/S 743 mmHg 72%
    22:00 +7°C° 0 mm 1 m/S 742 mmHg 73%
    23:00 +7°C° 0 mm 1 m/S 742 mmHg 74%

    2 März, Montag

    Zeit Temperatur Niederschläge Wind Luftdruck Luftfeuchtigkeit
    00:00 +7°C° 0 mm 1 m/S 742 mmHg 75%
    01:00 +7°C° 0 mm 1 m/S 742 mmHg 77%
    02:00 +7°C° 0 mm 1 m/S 742 mmHg 78%
    03:00 +7°C° 0 mm 1 m/S 741 mmHg 80%
    04:00 +7°C° 0 mm 1 m/S 741 mmHg 81%
    05:00 +6°C° 0 mm 1 m/S 740 mmHg 82%
    06:00 +7°C° 0 mm 1 m/S 740 mmHg 82%
    07:00 +7°C° 0 mm 1 m/S 740 mmHg 82%
    08:00 +8°C° 0 mm 1 m/S 740 mmHg 82%
    09:00 +9°C° 0 mm 2 m/S 740 mmHg 75%
    10:00 +12°C° 0 mm 2 m/S 740 mmHg 69%
    11:00 +14°C° 0 mm 2 m/S 740 mmHg 62%
    12:00 +14°C° 0 mm 2 m/S 739 mmHg 61%
    13:00 +15°C° 0 mm 2 m/S 739 mmHg 59%
    14:00 +16°C° 0 mm 2 m/S 738 mmHg 58%
    15:00 +16°C° 0 mm 2 m/S 738 mmHg 59%
    16:00 +16°C° 0 mm 2 m/S 738 mmHg 61%
    17:00 +16°C° 0 mm 2 m/S 738 mmHg 62%
    18:00 +14°C° 0 mm 2 m/S 738 mmHg 67%
    19:00 +13°C° 0 mm 2 m/S 739 mmHg 72%
    20:00 +10°C° 0 mm 2 m/S 739 mmHg 77%
    21:00 +10°C° 0 mm 2 m/S 739 mmHg 78%
    22:00 +10°C° 0 mm 2 m/S 739 mmHg 78%
    23:00 +10°C° 0 mm 2 m/S 740 mmHg 79%

    3 März, Dienstag

    Zeit Temperatur Niederschläge Wind Luftdruck Luftfeuchtigkeit
    00:00 +10°C° 0 mm 2 m/S 740 mmHg 79%
    01:00 +11°C° 0 mm 1 m/S 739 mmHg 79%
    02:00 +11°C° 0 mm 1 m/S 739 mmHg 79%
    03:00 +10°C° 0 mm 1 m/S 739 mmHg 80%
    04:00 +9°C° 0 mm 2 m/S 739 mmHg 81%
    05:00 +9°C° 0 mm 2 m/S 738 mmHg 82%
    06:00 +9°C° 0 mm 2 m/S 738 mmHg 83%
    07:00 +9°C° 0 mm 2 m/S 738 mmHg 84%
    08:00 +9°C° 0 mm 2 m/S 738 mmHg 84%
    09:00 +12°C° 0 mm 2 m/S 738 mmHg 77%
    10:00 +14°C° 0 mm 2 m/S 738 mmHg 70%
    11:00 +16°C° 0 mm 3 m/S 738 mmHg 63%
    12:00 +17°C° 0 mm 3 m/S 737 mmHg 59%
    13:00 +18°C° 0 mm 3 m/S 737 mmHg 55%
    14:00 +19°C° 0 mm 4 m/S 737 mmHg 51%
    15:00 +19°C° 0 mm 4 m/S 737 mmHg 52%
    16:00 +19°C° 0 mm 4 m/S 736 mmHg 53%
    17:00 +18°C° 0 mm 4 m/S 736 mmHg 54%
    18:00 +17°C° 0 mm 3 m/S 736 mmHg 59%
    19:00 +14°C° 0 mm 3 m/S 736 mmHg 64%
    20:00 +13°C° 0 mm 3 m/S 736 mmHg 70%
    21:00 +13°C° 0 mm 3 m/S 736 mmHg 73%
    22:00 +12°C° 0 mm 3 m/S 736 mmHg 76%
    23:00 +12°C° 0 mm 3 m/S 736 mmHg 80%

    4 März, Mittwoch

    Zeit Temperatur Niederschläge Wind Luftdruck Luftfeuchtigkeit
    00:00 +11°C° 0 mm 3 m/S 735 mmHg 81%
    01:00 +11°C° 0 mm 3 m/S 735 mmHg 83%
    02:00 +12°C° 0 mm 2 m/S 734 mmHg 85%
    03:00 +11°C° 0 mm 3 m/S 734 mmHg 84%
    04:00 +11°C° 0 mm 3 m/S 733 mmHg 84%
    05:00 +11°C° 0 mm 3 m/S 733 mmHg 84%
    06:00 +11°C° 0.5 mm 3 m/S 733 mmHg 84%
    07:00 +11°C° 0.5 mm 3 m/S 732 mmHg 85%
    08:00 +11°C° 0.5 mm 3 m/S 732 mmHg 85%
    09:00 +12°C° 0.7 mm 3 m/S 732 mmHg 83%
    10:00 +13°C° 0.7 mm 4 m/S 732 mmHg 81%
    11:00 +14°C° 0.7 mm 4 m/S 732 mmHg 78%
    12:00 +15°C° 0.4 mm 4 m/S 731 mmHg 70%
    13:00 +17°C° 0.4 mm 4 m/S 731 mmHg 61%
    14:00 +18°C° 0.4 mm 3 m/S 731 mmHg 53%
    15:00 +17°C° 0.2 mm 3 m/S 730 mmHg 53%
    16:00 +17°C° 0.2 mm 3 m/S 730 mmHg 54%
    17:00 +17°C° 0.2 mm 3 m/S 730 mmHg 54%
    18:00 +15°C° 0.1 mm 2 m/S 730 mmHg 62%
    19:00 +13°C° 0.1 mm 2 m/S 731 mmHg 70%
    20:00 +12°C° 0.1 mm 2 m/S 731 mmHg 77%
    21:00 +12°C° 0.1 mm 1 m/S 731 mmHg 80%
    22:00 +11°C° 0.1 mm 1 m/S 731 mmHg 82%
    23:00 +11°C° 0.1 mm 1 m/S 732 mmHg 85%
    Mehr zeigen